Location: Colle Pacifico
(43.5333°N, 13.3167°E)
Time: 04:13:14
(UTC+00:00)

UNK - Pass Details

Date: 07 June 2020
Orbit: 667 x 686 km, 98.1° (Epoch: 07 July)

Event Time Altitude Azimuth Distance (km) Brightness Sun altitude
Exits shadow 01:11:41 34° 200° (SSW) 1,106 4.3 -17.6°
Maximum altitude 01:13:26 55° 260° (W) 809 3.9 -17.5°
Drops below altitude 10° 01:17:56 10° 338° (NNW) 2,103 6.8 -17.1°
Sets 01:20:13 0° 343° (NNW) 3,020 7.7 -16.8°
